This is the latest recevied weather packets stored in our database for station/object KC5DAQ-25. If no packets are shown the sender has not sent any weather packets the latest 10 day(s).
| Time | Temp. | Humidity | Pressure | Rain* | Wind** | Luminosity | Snow |
|---|---|---|---|---|---|---|---|
| 1777661202 | 17.22° C | 90% | 1000.9 hPa | 0.25 mm | - | 127 W/m² | - |
| 1777661142 | 17.22° C | 90% | 1000.8 hPa | 0.51 mm | - | 90 W/m² | - |
| 1777661082 | 17.22° C | 90% | 1000.9 hPa | 0.51 mm | - | 90 W/m² | - |
| 1777661021 | 17.22° C | 90% | 1000.8 hPa | 0.51 mm | - | 99 W/m² | - |
| 1777660961 | 17.22° C | 90% | 1001 hPa | 0.51 mm | - | 99 W/m² | - |
| 1777660901 | 17.22° C | 90% | 1001 hPa | 0.51 mm | - | 99 W/m² | - |
| 1777660841 | 17.22° C | 90% | 1001.2 hPa | 0.51 mm | - | 99 W/m² | - |
| 1777660782 | 17.22° C | 90% | 1001.2 hPa | 0.51 mm | - | 99 W/m² | - |
| 1777660720 | 17.22° C | 90% | 1001.2 hPa | 0.51 mm | - | 99 W/m² | - |
| 1777660662 | 17.22° C | 90% | 1001.2 hPa | 0.51 mm | - | 99 W/m² | - |
| 1777660601 | 17.22° C | 91% | 1001.3 hPa | 0.51 mm | - | 99 W/m² | - |
| 1777660542 | 17.22° C | 91% | 1001.5 hPa | 0.51 mm | - | 99 W/m² | - |
| 1777660482 | 17.22° C | 90% | 1001.4 hPa | 0.51 mm | - | 99 W/m² | - |
| 1777660422 | 17.22° C | 90% | 1001.5 hPa | 0.76 mm | - | 118 W/m² | - |
| 1777660361 | 17.22° C | 90% | 1001.5 hPa | 0.76 mm | - | 137 W/m² | - |
| 1777660300 | 17.22° C | 90% | 1001.5 hPa | 0.76 mm | - | 137 W/m² | - |
| 1777660242 | 17.22° C | 90% | 1001.5 hPa | 0.76 mm | - | 137 W/m² | - |
| 1777660181 | 17.22° C | 90% | 1001.4 hPa | 0.76 mm | - | 137 W/m² | - |
| 1777660122 | 17.22° C | 90% | 1001.3 hPa | 0.76 mm | - | 280 W/m² | - |
| 1777660060 | 17.22° C | 90% | 1001.3 hPa | 0.76 mm | - | 280 W/m² | - |
| 1777660002 | 17.22° C | 90% | 1001.3 hPa | 0.76 mm | - | 236 W/m² | - |
| 1777659940 | 17.22° C | 90% | 1001.2 hPa | 0.76 mm | - | 244 W/m² | - |
| 1777659880 | 17.22° C | 90% | 1001.2 hPa | 1.02 mm | - | 243 W/m² | - |
| 1777659822 | 17.22° C | 90% | 1001.1 hPa | 1.02 mm | - | 243 W/m² | - |
| 1777659760 | 17.22° C | 91% | 1001 hPa | 1.02 mm | - | 260 W/m² | - |
* Rain latest hour (hover to see other rain measurements)
** Current wind speed in m/s (hover to see current wind gust speed)